QPF
0.00 0.00 0.00 0.00 0.01 0.02 0.03 0.04 0.03 0.04 0.05 0.03 0.02 0.02 0.06 0.15 0.28 0.30 0.17 0.17 0.10 0.07 0.07 0.07 0.07 0.07 0.07 0.05 0.04 0.05 0.03 0.03 0.02 0.02 0.01 0.01 0.01 0.01 0.01 0.01 0.02 0.01 0.00
0.00 0.00 0.00 0.00 0.00 0.00 0.01 0.01 0.02 0.03 0.06 0.07 0.02 0.03 0.04 0.08 0.20 0.23 0.15 0.17 0.10 0.05 0.04 0.05 0.07 0.08 0.06 0.05 0.04 0.04 0.02 0.02 0.02 0.01 0.01 0.02 0.02 0.02 0.01 0.01 0.01 0.01 0.00
0.00 0.00 0.00 0.00 0.01 0.01 0.01 0.01 0.01 0.03 0.03 0.03 0.02 0.03 0.03 0.03 0.06 0.08 0.07 0.07 0.07 0.06 0.04 0.03 0.05 0.06 0.04 0.04 0.03 0.03 0.02 0.01 0.01 0.01 0.01 0.00 0.00 0.00 0.00 0.00 0.01 0.01 0.00
0.02 0.03 0.01 0.01 0.02 0.01 0.01 0.02 0.02 0.02 0.03 0.04 0.03 0.03 0.03 0.03 0.02 0.02 0.02 0.02 0.03 0.04 0.07 0.06 0.05 0.05 0.03 0.03 0.02 0.03 0.03 0.01 0.01 0.01 0.01 0.01 0.00 0.00 0.00 0.00 0.00 0.01 0.00
0.10 0.11 0.08 0.09 0.08 0.04 0.04 0.03 0.02 0.05 0.05 0.07 0.06 0.06 0.05 0.03 0.01 0.00 0.00 0.00 0.01 0.08 0.14 0.11 0.06 0.04 0.06 0.05 0.04 0.05 0.03 0.02 0.01 0.01 0.02 0.01 0.01 0.00 0.00 0.00 0.00 0.00 0.00
0.21 0.22 0.17 0.17 0.13 0.09 0.09 0.09 0.09 0.09 0.07 0.08 0.04 0.03 0.03 0.01 0.00 0.00 0.00 0.00 0.00 0.01 0.05 0.11 0.13 0.08 0.07 0.07 0.07 0.07 0.05 0.04 0.03 0.02 0.03 0.02 0.02 0.01 0.01 0.00 0.00 0.00 0.00
0.29 0.31 0.25 0.27 0.23 0.15 0.12 0.10 0.07 0.05 0.04 0.05 0.04 0.04 0.01 0.01 0.01 0.00 0.00 0.00 0.00 0.00 0.01 0.05 0.08 0.09 0.08 0.02 0.05 0.09 0.13 0.09 0.07 0.04 0.04 0.04 0.03 0.02 0.02 0.01 0.00 0.01 0.01
0.46 0.44 0.43 0.38 0.28 0.18 0.11 0.07 0.04 0.03 0.02 0.03 0.05 0.05 0.01 0.00 0.00 0.00 0.00 0.00 0.00 0.00 0.00 0.01 0.04 0.09 0.06 0.03 0.04 0.04 0.10 0.09 0.06 0.05 0.05 0.04 0.03 0.02 0.02 0.01 0.00 0.01 0.01
0.77 0.72 0.64 0.50 0.31 0.17 0.12 0.07 0.03 0.02 0.02 0.02 0.04 0.09 0.06 0.02 0.02 0.00 0.00 0.00 0.01 0.01 0.01 0.02 0.03 0.06 0.05 0.03 0.02 0.01 0.02 0.03 0.03 0.04 0.05 0.04 0.02 0.01 0.01 0.01 0.01 0.01 0.01
0.99 0.88 0.73 0.50 0.28 0.14 0.07 0.03 0.01 0.02 0.03 0.02 0.04 0.07 0.11 0.09 0.08 0.03 0.01 0.02 0.04 0.03 0.03 0.03 0.02 0.02 0.02 0.01 0.01 0.01 0.00 0.00 0.02 0.03 0.05 0.05 0.04 0.02 0.01 0.02 0.04 0.03 0.03
0.70 0.63 0.53 0.39 0.21 0.10 0.05 0.04 0.03 0.03 0.03 0.02 0.02 0.02 0.02 0.04 0.04 0.07 0.04 0.07 0.10 0.08 0.04 0.02 0.01 0.01 0.01 0.01 0.01 0.01 0.01 0.01 0.01 0.01 0.02 0.02 0.02 0.02 0.02 0.03 0.04 0.04 0.06
0.31 0.29 0.25 0.19 0.11 0.06 0.05 0.04 0.04 0.03 0.02 0.03 0.04 0.05 0.04 0.04 0.05 0.09 0.11 0.15 0.16 0.12 0.07 0.04 0.02 0.01 0.01 0.01 0.03 0.03 0.02 0.03 0.06 0.07 0.06 0.04 0.01 0.00 0.00 0.01 0.01 0.03 0.08
0.10 0.11 0.09 0.08 0.05 0.04 0.04 0.06 0.05 0.03 0.03 0.03 0.04 0.06 0.09 0.11 0.14 0.18 0.20 0.21 0.16 0.10 0.07 0.08 0.09 0.08 0.05 0.07 0.12 0.07 0.06 0.11 0.11 0.08 0.06 0.03 0.01 0.00 0.00 0.00 0.01 0.02 0.08
0.07 0.06 0.06 0.06 0.04 0.03 0.03 0.05 0.04 0.03 0.03 0.03 0.03 0.06 0.09 0.10 0.11 0.17 0.20 0.18 0.13 0.11 0.14 0.17 0.13 0.10 0.11 0.17 0.26 0.25 0.24 0.19 0.09 0.05 0.03 0.02 0.01 0.00 0.00 0.00 0.01 0.02 0.05
0.05 0.04 0.05 0.05 0.04 0.03 0.04 0.03 0.03 0.03 0.04 0.04 0.06 0.08 0.09 0.07 0.05 0.05 0.08 0.09 0.08 0.07 0.08 0.09 0.07 0.06 0.07 0.14 0.27 0.35 0.36 0.22 0.07 0.03 0.02 0.01 0.01 0.01 0.01 0.01 0.01 0.01 0.04
0.03 0.04 0.04 0.03 0.02 0.01 0.01 0.01 0.01 0.03 0.04 0.05 0.08 0.12 0.13 0.11 0.07 0.04 0.04 0.06 0.06 0.04 0.02 0.03 0.02 0.02 0.05 0.12 0.20 0.23 0.26 0.14 0.04 0.02 0.01 0.02 0.02 0.02 0.02 0.03 0.03 0.03 0.05
0.04 0.04 0.02 0.01 0.00 0.00 0.00 0.00 0.00 0.00 0.02 0.03 0.04 0.05 0.05 0.05 0.05 0.02 0.02 0.03 0.04 0.05 0.05 0.03 0.03 0.03 0.06 0.14 0.17 0.15 0.15 0.09 0.06 0.03 0.02 0.03 0.03 0.04 0.03 0.02 0.03 0.04 0.06
0.06 0.04 0.02 0.00 0.00 0.00 0.00 0.00 0.00 0.01 0.01 0.01 0.01 0.01 0.01 0.02 0.02 0.00 0.00 0.00 0.02 0.05 0.06 0.07 0.06 0.06 0.06 0.10 0.12 0.14 0.14 0.14 0.16 0.10 0.04 0.02 0.03 0.05 0.03 0.02 0.04 0.04 0.08
0.06 0.04 0.02 0.01 0.00 0.01 0.01 0.02 0.01 0.00 0.00 0.00 0.00 0.01 0.01 0.01 0.01 0.00 0.00 0.00 0.00 0.03 0.10 0.12 0.13 0.12 0.11 0.10 0.08 0.12 0.14 0.23 0.31 0.21 0.08 0.03 0.02 0.04 0.05 0.02 0.06 0.13 0.23
0.01 0.01 0.00 0.00 0.00 0.01 0.01 0.01 0.00 0.00 0.00 0.00 0.00 0.00 0.00 0.00 0.00 0.00 0.00 0.00 0.00 0.02 0.07 0.11 0.11 0.10 0.11 0.08 0.07 0.11 0.17 0.26 0.34 0.27 0.17 0.09 0.03 0.02 0.04 0.02 0.03 0.11 0.20
0.00 0.00 0.00 0.00 0.00 0.01 0.00 0.00 0.00 0.00 0.00 0.00 0.00 0.00 0.00 0.00 0.00 0.00 0.00 0.00 0.01 0.01 0.01 0.02 0.02 0.02 0.04 0.03 0.04 0.08 0.15 0.27 0.35 0.34 0.31 0.22 0.13 0.09 0.06 0.04 0.03 0.05 0.08
0.00 0.00 0.00 0.00 0.00 0.00 0.00 0.00 0.00 0.00 0.00 0.00 0.00 0.00 0.00 0.00 0.00 0.00 0.00 0.00 0.00 0.01 0.01 0.01 0.00 0.00 0.01 0.01 0.03 0.08 0.17 0.33 0.49 0.51 0.50 0.46 0.33 0.26 0.20 0.14 0.07 0.04 0.03
0.00 0.00 0.00 0.00 0.00 0.00 0.00 0.00 0.00 0.00 0.00 0.00 0.00 0.00 0.00 0.00 0.00 0.00 0.00 0.00 0.00 0.00 0.00 0.01 0.00 0.00 0.00 0.00 0.02 0.07 0.17 0.43 0.71 0.82 0.75 0.79 0.60 0.38 0.26 0.18 0.14 0.08 0.04
0.00 0.01 0.01 0.01 0.00 0.00 0.00 0.00 0.00 0.00 0.00 0.00 0.00 0.00 0.00 0.00 0.00 0.00 0.00 0.00 0.00 0.00 0.00 0.00 0.00 0.00 0.00 0.01 0.01 0.03 0.05 0.17 0.38 0.54 0.66 0.85 0.83 0.70 0.48 0.22 0.14 0.12 0.11
0.02 0.01 0.01 0.01 0.00 0.00 0.00 0.00 0.00 0.00 0.00 0.00 0.00 0.00 0.00 0.00 0.00 0.00 0.00 0.00 0.00 0.00 0.00 0.00 0.00 0.00 0.00 0.00 0.01 0.03 0.02 0.02 0.04 0.07 0.18 0.47 0.67 0.74 0.77 0.61 0.34 0.23 0.15
0.04 0.01 0.00 0.00 0.00 0.00 0.00 0.00 0.00 0.00 0.00 0.00 0.00 0.00 0.00 0.00 0.00 0.00 0.00 0.00 0.00 0.00 0.00 0.00 0.00 0.00 0.00 0.00 0.00 0.02 0.06 0.07 0.05 0.04 0.04 0.10 0.20 0.36 0.50 0.53 0.44 0.35 0.28
MSLP
1013.76 1013.75 1013.71 1013.63 1013.55 1013.48 1013.43 1013.42 1013.44 1013.47 1013.49 1013.49 1013.46 1013.39 1013.31 1013.23 1013.18 1013.19 1013.25 1013.36 1013.50 1013.65 1013.76 1013.83 1013.85 1013.83 1013.79 1013.76 1013.76 1013.83 1013.96 1014.16 1014.41 1014.69 1014.96 1015.23 1015.47 1015.69 1015.90 1016.11 1016.34 1016.58 1016.86
1013.46 1013.48 1013.44 1013.36 1013.26 1013.15 1013.07 1013.03 1013.02 1013.04 1013.06 1013.07 1013.06 1013.00 1012.92 1012.83 1012.74 1012.70 1012.69 1012.74 1012.83 1012.94 1013.05 1013.14 1013.20 1013.23 1013.23 1013.24 1013.28 1013.35 1013.49 1013.68 1013.91 1014.18 1014.45 1014.72 1014.97 1015.20 1015.41 1015.62 1015.85 1016.09 1016.38
1013.20 1013.25 1013.24 1013.17 1013.07 1012.95 1012.84 1012.77 1012.74 1012.74 1012.76 1012.76 1012.74 1012.67 1012.56 1012.42 1012.27 1012.13 1012.04 1012.01 1012.03 1012.11 1012.22 1012.34 1012.45 1012.54 1012.62 1012.69 1012.77 1012.87 1013.01 1013.19 1013.41 1013.65 1013.91 1014.17 1014.41 1014.64 1014.85 1015.07 1015.30 1015.56 1015.85
1012.94 1013.03 1013.06 1013.02 1012.93 1012.81 1012.70 1012.61 1012.55 1012.53 1012.53 1012.52 1012.48 1012.38 1012.21 1012.00 1011.75 1011.52 1011.32 1011.19 1011.14 1011.17 1011.28 1011.42 1011.59 1011.76 1011.92 1012.06 1012.19 1012.32 1012.47 1012.64 1012.84 1013.06 1013.30 1013.54 1013.78 1014.01 1014.23 1014.45 1014.70 1014.97 1015.28
1012.64 1012.79 1012.86 1012.87 1012.80 1012.70 1012.58 1012.48 1012.41 1012.37 1012.34 1012.31 1012.23 1012.08 1011.86 1011.57 1011.24 1010.89 1010.59 1010.36 1010.23 1010.21 1010.29 1010.45 1010.67 1010.89 1011.12 1011.32 1011.51 1011.67 1011.84 1012.01 1012.19 1012.40 1012.62 1012.84 1013.07 1013.30 1013.54 1013.78 1014.04 1014.34 1014.68
1012.28 1012.48 1012.61 1012.66 1012.63 1012.55 1012.44 1012.33 1012.24 1012.19 1012.14 1012.08 1011.98 1011.80 1011.53 1011.18 1010.76 1010.33 1009.93 1009.61 1009.39 1009.31 1009.35 1009.50 1009.73 1009.99 1010.25 1010.50 1010.73 1010.92 1011.11 1011.28 1011.47 1011.66 1011.87 1012.09 1012.32 1012.56 1012.80 1013.06 1013.35 1013.67 1014.04
1011.86 1012.11 1012.29 1012.39 1012.40 1012.34 1012.24 1012.13 1012.04 1011.97 1011.91 1011.83 1011.71 1011.52 1011.23 1010.84 1010.39 1009.90 1009.42 1009.02 1008.73 1008.57 1008.55 1008.65 1008.85 1009.10 1009.38 1009.64 1009.89 1010.11 1010.31 1010.50 1010.70 1010.90 1011.11 1011.34 1011.57 1011.81 1012.06 1012.33 1012.63 1012.98 1013.37
1011.38 1011.68 1011.91 1012.05 1012.10 1012.06 1011.98 1011.87 1011.78 1011.69 1011.63 1011.56 1011.45 1011.26 1010.99 1010.61 1010.15 1009.64 1009.13 1008.67 1008.31 1008.07 1007.97 1007.99 1008.12 1008.32 1008.56 1008.81 1009.06 1009.29 1009.52 1009.73 1009.95 1010.17 1010.40 1010.63 1010.86 1011.10 1011.35 1011.62 1011.93 1012.28 1012.68
1010.87 1011.20 1011.47 1011.65 1011.74 1011.73 1011.66 1011.56 1011.46 1011.39 1011.33 1011.27 1011.19 1011.04 1010.81 1010.48 1010.06 1009.57 1009.06 1008.58 1008.16 1007.84 1007.64 1007.56 1007.59 1007.71 1007.88 1008.09 1008.32 1008.55 1008.79 1009.03 1009.28 1009.53 1009.78 1010.02 1010.25 1010.47 1010.70 1010.95 1011.23 1011.56 1011.96
1010.36 1010.72 1011.02 1011.23 1011.34 1011.35 1011.30 1011.22 1011.13 1011.06 1011.02 1010.99 1010.95 1010.86 1010.70 1010.45 1010.10 1009.67 1009.19 1008.70 1008.25 1007.87 1007.57 1007.38 1007.30 1007.30 1007.39 1007.53 1007.72 1007.95 1008.20 1008.47 1008.75 1009.02 1009.29 1009.53 1009.74 1009.93 1010.12 1010.31 1010.54 1010.84 1011.21
1009.88 1010.25 1010.56 1010.80 1010.93 1010.97 1010.93 1010.86 1010.79 1010.73 1010.71 1010.71 1010.71 1010.69 1010.61 1010.45 1010.20 1009.85 1009.43 1008.97 1008.50 1008.07 1007.70 1007.40 1007.20 1007.09 1007.08 1007.15 1007.29 1007.50 1007.76 1008.05 1008.35 1008.65 1008.92 1009.15 1009.33 1009.47 1009.58 1009.70 1009.86 1010.09 1010.42
1009.46 1009.82 1010.14 1010.38 1010.53 1010.59 1010.57 1010.52 1010.46 1010.42 1010.41 1010.44 1010.49 1010.53 1010.52 1010.45 1010.29 1010.03 1009.68 1009.27 1008.82 1008.36 1007.93 1007.55 1007.25 1007.04 1006.93 1006.93 1007.02 1007.20 1007.46 1007.76 1008.08 1008.38 1008.65 1008.84 1008.97 1009.04 1009.07 1009.10 1009.17 1009.32 1009.60
1009.13 1009.47 1009.77 1010.00 1010.16 1010.23 1010.24 1010.21 1010.17 1010.14 1010.15 1010.20 1010.27 1010.34 1010.40 1010.39 1010.31 1010.14 1009.87 1009.51 1009.10 1008.64 1008.18 1007.75 1007.37 1007.08 1006.90 1006.83 1006.87 1007.03 1007.27 1007.57 1007.88 1008.17 1008.41 1008.56 1008.63 1008.61 1008.55 1008.48 1008.46 1008.54 1008.76
1008.92 1009.21 1009.47 1009.68 1009.84 1009.92 1009.96 1009.95 1009.93 1009.92 1009.94 1009.99 1010.07 1010.16 1010.24 1010.28 1010.25 1010.15 1009.94 1009.65 1009.28 1008.85 1008.39 1007.94 1007.52 1007.18 1006.93 1006.81 1006.81 1006.93 1007.14 1007.41 1007.70 1007.96 1008.16 1008.26 1008.25 1008.16 1008.01 1007.86 1007.76 1007.77 1007.95
1008.84 1009.06 1009.26 1009.45 1009.59 1009.69 1009.75 1009.77 1009.78 1009.78 1009.80 1009.85 1009.92 1010.00 1010.07 1010.13 1010.13 1010.07 1009.92 1009.68 1009.36 1008.97 1008.54 1008.09 1007.66 1007.29 1007.01 1006.84 1006.79 1006.86 1007.03 1007.26 1007.50 1007.72 1007.86 1007.90 1007.83 1007.67 1007.46 1007.24 1007.09 1007.06 1007.21
1008.90 1009.03 1009.18 1009.32 1009.45 1009.57 1009.65 1009.70 1009.74 1009.77 1009.79 1009.82 1009.87 1009.92 1009.97 1010.01 1010.01 1009.97 1009.85 1009.66 1009.38 1009.04 1008.64 1008.21 1007.79 1007.41 1007.10 1006.90 1006.80 1006.82 1006.93 1007.10 1007.28 1007.43 1007.51 1007.50 1007.38 1007.18 1006.93 1006.68 1006.51 1006.47 1006.62
1009.10 1009.15 1009.23 1009.33 1009.45 1009.58 1009.69 1009.79 1009.86 1009.91 1009.94 1009.96 1009.98 1009.99 1010.00 1010.00 1009.99 1009.93 1009.82 1009.65 1009.42 1009.12 1008.75 1008.36 1007.95 1007.57 1007.25 1007.00 1006.86 1006.81 1006.85 1006.94 1007.05 1007.13 1007.15 1007.09 1006.94 1006.72 1006.47 1006.23 1006.08 1006.06 1006.22
1009.42 1009.39 1009.42 1009.49 1009.60 1009.74 1009.89 1010.02 1010.13 1010.21 1010.26 1010.27 1010.27 1010.25 1010.21 1010.17 1010.12 1010.04 1009.92 1009.76 1009.54 1009.27 1008.94 1008.57 1008.18 1007.79 1007.45 1007.17 1006.97 1006.85 1006.81 1006.82 1006.85 1006.87 1006.84 1006.74 1006.58 1006.37 1006.14 1005.95 1005.83 1005.86 1006.06
1009.82 1009.75 1009.74 1009.79 1009.90 1010.05 1010.23 1010.40 1010.55 1010.66 1010.73 1010.75 1010.74 1010.69 1010.62 1010.53 1010.44 1010.33 1010.19 1010.02 1009.81 1009.54 1009.23 1008.87 1008.48 1008.10 1007.73 1007.41 1007.15 1006.97 1006.85 1006.78 1006.74 1006.69 1006.62 1006.51 1006.35 1006.17 1005.99 1005.85 1005.80 1005.88 1006.12
1010.25 1010.17 1010.15 1010.19 1010.31 1010.48 1010.68 1010.89 1011.07 1011.22 1011.32 1011.35 1011.34 1011.27 1011.18 1011.07 1010.94 1010.79 1010.63 1010.44 1010.21 1009.94 1009.63 1009.27 1008.87 1008.47 1008.08 1007.72 1007.41 1007.17 1006.98 1006.84 1006.74 1006.65 1006.55 1006.43 1006.29 1006.15 1006.02 1005.95 1005.97 1006.10 1006.38
1010.67 1010.61 1010.60 1010.66 1010.79 1010.97 1011.19 1011.42 1011.64 1011.82 1011.94 1011.99 1011.99 1011.93 1011.83 1011.70 1011.55 1011.38 1011.19 1010.97 1010.72 1010.43 1010.09 1009.72 1009.31 1008.89 1008.47 1008.08 1007.73 1007.44 1007.20 1007.01 1006.87 1006.74 1006.63 1006.52 1006.40 1006.30 1006.23 1006.22 1006.29 1006.47 1006.77
1011.02 1011.01 1011.04 1011.13 1011.27 1011.47 1011.70 1011.94 1012.18 1012.37 1012.51 1012.59 1012.61 1012.57 1012.47 1012.34 1012.18 1011.99 1011.78 1011.53 1011.25 1010.93 1010.57 1010.17 1009.74 1009.30 1008.86 1008.44 1008.07 1007.74 1007.48 1007.26 1007.10 1006.96 1006.85 1006.74 1006.66 1006.59 1006.56 1006.59 1006.69 1006.90 1007.21
1011.28 1011.35 1011.43 1011.56 1011.72 1011.92 1012.16 1012.40 1012.63 1012.83 1012.99 1013.09 1013.12 1013.10 1013.03 1012.91 1012.75 1012.56 1012.33 1012.06 1011.75 1011.40 1011.01 1010.58 1010.12 1009.66 1009.20 1008.78 1008.39 1008.06 1007.78 1007.56 1007.39 1007.26 1007.15 1007.06 1007.00 1006.95 1006.95 1006.99 1007.11 1007.31 1007.60
1011.43 1011.58 1011.74 1011.90 1012.09 1012.30 1012.52 1012.75 1012.97 1013.17 1013.32 1013.44 1013.49 1013.50 1013.45 1013.35 1013.21 1013.02 1012.78 1012.49 1012.16 1011.78 1011.36 1010.91 1010.43 1009.95 1009.49 1009.06 1008.67 1008.34 1008.08 1007.87 1007.71 1007.58 1007.49 1007.42 1007.36 1007.33 1007.33 1007.37 1007.47 1007.65 1007.89
1011.48 1011.72 1011.94 1012.16 1012.37 1012.59 1012.80 1013.02 1013.21 1013.39 1013.54 1013.65 1013.72 1013.74 1013.72 1013.65 1013.52 1013.34 1013.11 1012.82 1012.47 1012.08 1011.64 1011.16 1010.67 1010.18 1009.72 1009.29 1008.91 1008.60 1008.35 1008.16 1008.01 1007.90 1007.82 1007.75 1007.70 1007.66 1007.65 1007.67 1007.74 1007.86 1008.05
1011.44 1011.78 1012.07 1012.34 1012.59 1012.82 1013.02 1013.22 1013.39 1013.55 1013.68 1013.78 1013.85 1013.88 1013.88 1013.82 1013.72 1013.56 1013.34 1013.06 1012.71 1012.31 1011.87 1011.38 1010.89 1010.40 1009.93 1009.51 1009.15 1008.84 1008.61 1008.43 1008.29 1008.19 1008.12 1008.05 1007.99 1007.94 1007.90 1007.88 1007.90 1007.97 1008.09
Thickness
5781 5782 5780 5778 5777 5778 5779 5778 5779 5779 5777 5778 5778 5778 5775 5770 5768 5766 5765 5762 5761 5760 5759 5758 5757 5757 5757 5756 5755 5754 5751 5748 5746 5744 5742 5741 5739 5738 5736 5734 5732 5729 5725
5779 5778 5777 5776 5777 5777 5778 5778 5778 5776 5776 5775 5776 5776 5774 5773 5769 5765 5766 5766 5763 5761 5760 5759 5757 5756 5756 5756 5756 5755 5753 5751 5748 5746 5743 5741 5740 5739 5737 5735 5733 5730 5727
5774 5773 5774 5775 5776 5776 5774 5773 5775 5775 5775 5776 5776 5775 5774 5772 5770 5768 5767 5767 5767 5764 5762 5760 5759 5757 5756 5755 5755 5754 5753 5752 5750 5747 5745 5742 5740 5738 5737 5735 5733 5731 5727
5765 5764 5768 5771 5772 5772 5772 5771 5771 5773 5772 5771 5772 5772 5773 5772 5771 5771 5771 5769 5768 5768 5765 5761 5759 5758 5757 5755 5754 5754 5753 5752 5750 5748 5745 5743 5740 5738 5737 5735 5732 5730 5727
5756 5753 5757 5762 5763 5765 5766 5766 5769 5767 5766 5766 5768 5769 5771 5771 5772 5773 5773 5771 5770 5767 5765 5763 5759 5758 5757 5756 5754 5753 5753 5752 5750 5747 5745 5742 5740 5739 5737 5734 5731 5729 5726
5748 5745 5746 5749 5752 5756 5756 5756 5757 5757 5758 5761 5765 5766 5767 5771 5772 5773 5773 5773 5771 5769 5767 5765 5762 5760 5757 5756 5754 5753 5752 5752 5750 5747 5744 5742 5740 5738 5736 5734 5731 5728 5726
5746 5741 5739 5740 5740 5743 5746 5749 5750 5752 5754 5758 5758 5761 5766 5770 5773 5772 5771 5771 5771 5770 5768 5765 5762 5762 5760 5756 5753 5752 5752 5750 5749 5747 5743 5740 5738 5737 5735 5733 5730 5728 5726
5745 5739 5733 5732 5731 5732 5736 5740 5742 5743 5749 5752 5749 5750 5754 5761 5767 5770 5768 5767 5767 5768 5767 5766 5762 5758 5756 5758 5756 5751 5749 5748 5747 5745 5742 5739 5736 5735 5734 5732 5729 5727 5725
5737 5731 5726 5723 5724 5726 5727 5731 5734 5737 5740 5744 5745 5741 5741 5748 5753 5760 5762 5761 5761 5761 5762 5763 5761 5757 5753 5754 5754 5749 5746 5743 5743 5742 5740 5737 5734 5733 5732 5731 5729 5726 5723
5727 5722 5718 5715 5715 5718 5721 5725 5730 5732 5732 5736 5739 5738 5738 5736 5731 5739 5751 5755 5755 5752 5753 5754 5755 5753 5750 5751 5751 5746 5741 5738 5737 5736 5735 5734 5733 5731 5730 5730 5728 5726 5723
5715 5713 5713 5709 5709 5711 5714 5716 5719 5723 5728 5730 5732 5733 5733 5731 5729 5724 5731 5739 5743 5746 5747 5746 5746 5745 5745 5745 5745 5744 5739 5734 5732 5730 5727 5728 5729 5728 5728 5727 5727 5725 5723
5704 5703 5704 5704 5704 5705 5707 5709 5713 5716 5720 5722 5725 5726 5726 5724 5723 5721 5721 5726 5729 5734 5739 5741 5740 5739 5738 5739 5739 5736 5731 5728 5727 5724 5721 5720 5721 5723 5723 5723 5723 5724 5723
5696 5695 5696 5697 5698 5699 5701 5704 5706 5710 5713 5714 5716 5718 5719 5719 5718 5716 5714 5716 5720 5727 5731 5732 5732 5731 5730 5730 5728 5725 5723 5720 5720 5718 5715 5713 5714 5716 5718 5719 5720 5721 5722
5691 5690 5689 5690 5692 5693 5696 5698 5701 5703 5705 5707 5710 5710 5711 5712 5714 5712 5710 5710 5713 5719 5720 5718 5721 5720 5719 5717 5715 5714 5715 5712 5711 5710 5708 5707 5707 5709 5712 5715 5717 5718 5720
5683 5682 5682 5682 5683 5685 5688 5690 5694 5696 5698 5701 5703 5702 5701 5703 5705 5705 5705 5706 5704 5705 5708 5710 5711 5711 5709 5708 5706 5707 5706 5702 5702 5701 5700 5701 5701 5702 5706 5711 5714 5716 5717
5671 5673 5673 5673 5674 5677 5679 5683 5686 5689 5691 5692 5692 5690 5689 5691 5692 5694 5697 5698 5697 5696 5696 5700 5699 5700 5699 5698 5696 5696 5695 5692 5693 5692 5693 5694 5695 5696 5701 5707 5711 5713 5714
5660 5662 5664 5666 5668 5670 5672 5674 5680 5681 5682 5683 5682 5682 5681 5681 5682 5685 5687 5688 5687 5686 5685 5692 5694 5693 5689 5686 5686 5686 5686 5685 5686 5685 5686 5687 5688 5690 5695 5701 5706 5709 5710
5651 5653 5655 5658 5662 5663 5663 5665 5668 5671 5672 5672 5671 5671 5670 5670 5669 5671 5673 5675 5677 5677 5676 5676 5680 5682 5681 5679 5678 5677 5678 5679 5679 5679 5678 5679 5681 5683 5687 5693 5698 5702 5703
5641 5644 5646 5649 5652 5654 5654 5656 5658 5659 5660 5660 5660 5658 5656 5656 5657 5659 5659 5663 5669 5673 5668 5665 5665 5667 5669 5670 5671 5672 5672 5671 5672 5672 5669 5670 5672 5675 5678 5683 5688 5692 5693
5631 5634 5637 5640 5642 5645 5645 5645 5646 5646 5646 5646 5647 5646 5646 5646 5645 5646 5650 5652 5657 5659 5658 5658 5657 5658 5660 5662 5663 5662 5662 5663 5664 5665 5663 5664 5665 5666 5670 5673 5678 5681 5682
5624 5626 5630 5633 5635 5636 5635 5634 5634 5634 5634 5634 5633 5633 5632 5630 5627 5631 5638 5641 5644 5646 5650 5650 5648 5649 5649 5650 5651 5651 5652 5655 5656 5656 5656 5656 5658 5662 5664 5665 5667 5669 5670
5618 5621 5624 5626 5628 5627 5620 5621 5624 5623 5623 5622 5622 5622 5623 5621 5619 5619 5621 5621 5623 5629 5632 5635 5635 5635 5634 5638 5640 5643 5642 5643 5643 5646 5647 5647 5649 5651 5655 5658 5658 5658 5659
5612 5614 5617 5617 5615 5610 5608 5609 5609 5613 5612 5611 5611 5612 5615 5611 5612 5615 5612 5611 5612 5613 5612 5617 5619 5618 5623 5625 5628 5635 5633 5631 5630 5632 5636 5635 5637 5640 5645 5646 5647 5647 5648
5605 5607 5609 5607 5604 5600 5598 5599 5601 5604 5603 5601 5601 5601 5601 5599 5598 5599 5603 5604 5606 5606 5606 5608 5605 5605 5609 5612 5619 5625 5627 5628 5626 5625 5625 5623 5625 5628 5633 5635 5636 5637 5638
5598 5599 5601 5600 5597 5591 5590 5592 5594 5597 5594 5592 5591 5590 5592 5590 5583 5585 5592 5593 5594 5595 5594 5592 5590 5592 5595 5599 5606 5616 5618 5622 5621 5618 5617 5615 5616 5618 5621 5622 5623 5626 5629
5592 5593 5593 5594 5591 5587 5583 5584 5586 5594 5589 5588 5585 5584 5577 5576 5573 5573 5581 5582 5580 5580 5582 5586 5584 5586 5590 5592 5595 5599 5604 5606 5607 5606 5607 5608 5608 5610 5610 5611 5613 5615 5618